ATLAS 5 CENTAUR DEB, 44896

Orbit data source: Space-Track

ATLAS 5 CENTAUR DEB, 44896 is space debris in HEO originally from a launch on Wed, 17 Oct 2018 UTC launched from the Air Force Eastern Test Range (AFETR). Debris objects in space refer to the collection of defunct objects orbiting the Earth. Examples of debris include non-operational satellites, rocket bodies, and fragments generated from explosions, collisions, or faulty payload assembly.

Loading next visibility...
Identifier
44896, 2018-079BK
Orbit
HEO
Country
Flag of USUS
Related business
Flag of USUnited Launch Alliance/Lockheed Martin (US)
Manufacturer
ULA Decatur
Mission
Spacecraft
Bus & Motor
Unknown
Mass
Unknown
Launch date (UTC)
2018-10-17 (8 years ago)
Launch vehicle
Unknown
Launch site
Air Force Eastern Test Range (AFETR)
Object type
Payload
Rocket body
Debris
Shape & HBR
Unknown shape, 1.1 m
Radar Cross Section
RCS unknown

Expand to show TLE details & history
Last TLE update: 9 hours ago

TLE from 9 hours ago
0 ATLAS 5 CENTAUR DEB
1 44896U 18079BK  26126.35398354 -.00000153  00000-0  00000+0 0  9992
2 44896  13.4442 348.7629 4636167  52.8082 341.2521  2.00786899 46869
Epoch: 2026-05-06T08:29Z
TLE epoch observation values (Epoch: 2026-05-06T08:29:44.177Z)
Latitude
-0.00007°
Longitude
-2.92017°
Altitude
9,873.207 km
Speed
5.834 km/s
True Right ascension
23h 14m 55s
True Declination
0° 00' 00"
Sunlit
Object was in daylight at epoch
Visualization orbit readout
Latitude
Unknown
Longitude
Unknown
Altitude
Unknown
Speed
Unknown
Apparent Right ascension
Unknown
Apparent Declination
Unknown
Sunlit
N/A
Visualization observer readout
Local Sidereal Time
01:39:17
Azimuth
Unknown
Elevation
Unknown
Doppler factor
Unknown
Orbital elements
Apogee altitude
32,470.437 km
Perigee altitude
7,859.01 km
Semi-major axis
26,542.861 km
Eccentricity
0.46362
Inclination
13.4442°
RAAN
348.7629°
Arg. of periapsis
52.8082°
True anomaly
307.34501°
Mean anomaly
341.2521°
Eccentric anomaly
326.64818°
Mean motion
0.50191 °/min
Orbital period
717.27 mins
BSTAR
0
Loading maneuver chart data...
Computing Atmospheric mass density...

Documentation

Showing up to 5 results
|